Wind_Speed
8 3 9 11 5 5 5 4 2 3 5 3 10 12 10 8 3 4 15 23 20 17 13 12 12 12 12 12 11 14 15 14 15 14 15 16 15 15 16 15 15 14 13 13 13 13 13 14 14
12 5 10 2 4 4 3 2 10 10 10 12 10 7 10 5 6 14 12 16 17 17 15 12 11 12 12 13 12 13 14 14 14 14 15 15 15 15 15 15 14 15 15 15 15 14 14 14 14
12 6 4 3 2 3 3 3 9 7 9 4 5 6 6 6 9 5 20 18 17 16 13 12 11 10 12 12 12 11 11 12 14 14 15 15 15 15 16 16 16 16 15 15 16 16 16 16 16
6 4 4 3 3 4 7 7 5 6 5 8 12 7 5 4 6 16 22 19 17 15 13 11 10 9 9 11 11 12 10 14 15 16 17 16 16 17 18 18 18 17 17 18 18 18 16 16 19
2 3 3 1 3 2 4 4 4 4 5 8 4 4 3 7 24 27 21 17 17 15 14 13 10 9 10 11 12 11 12 15 17 21 23 21 20 22 24 25 26 24 23 23 23 22 16 17 19
1 2 2 2 4 3 2 4 5 6 8 8 8 7 4 21 29 24 18 15 13 15 14 14 12 12 14 14 15 15 15 16 16 20 25 26 27 25 24 23 23 24 26 26 25 25 25 22 25
5 4 4 5 7 5 6 6 3 9 7 4 11 5 6 14 27 24 19 16 15 14 14 13 13 15 17 17 17 17 17 16 15 15 19 18 19 22 24 25 25 19 23 24 25 25 21 22 24
3 1 3 4 4 5 6 5 6 9 4 10 10 6 6 16 27 24 21 18 18 16 13 13 16 18 19 18 15 14 14 16 16 17 15 13 11 13 17 24 25 24 23 23 20 23 30 24 23
4 4 2 3 8 4 7 5 2 3 9 2 3 6 19 30 32 29 25 22 20 19 13 10 12 15 17 17 15 14 14 16 15 15 16 19 16 18 21 20 23 23 23 24 25 19 23 25 27
3 4 8 5 4 9 11 6 6 5 5 6 9 20 31 31 31 27 23 24 24 23 19 14 10 10 14 15 18 16 14 15 16 16 19 22 23 22 20 20 19 21 20 21 25 27 24 20 24
1 4 5 4 6 14 11 7 3 10 1 6 20 20 21 26 25 23 22 29 27 21 19 17 13 13 12 13 16 15 14 14 15 17 18 18 20 21 21 21 19 19 18 20 20 24 26 26 25
4 4 6 3 5 6 10 8 7 6 8 17 22 25 21 21 20 21 24 25 28 22 15 15 12 17 18 17 16 13 13 16 17 17 16 16 18 19 19 19 19 19 19 18 19 20 20 21 23
6 2 4 8 8 7 9 6 6 6 14 21 23 20 16 20 18 25 30 29 28 23 17 15 12 16 20 20 17 15 16 15 15 16 16 15 17 16 17 17 19 20 19 20 19 18 19 21 22
4 6 7 6 4 6 8 5 6 2 19 19 19 16 14 19 18 21 28 29 28 24 18 17 15 18 18 19 16 13 13 14 15 15 16 15 15 14 16 17 19 21 20 20 19 19 20 21 22
7 6 3 2 5 4 6 2 6 15 20 21 17 15 12 14 21 25 30 31 27 23 19 18 16 15 15 15 15 13 15 14 13 13 13 13 13 13 13 15 18 19 20 20 20 19 20 21 21
2 5 3 4 7 4 6 7 5 15 18 17 16 15 14 8 23 31 35 32 29 26 20 17 16 15 19 15 16 14 13 13 13 14 12 12 12 11 11 13 16 15 19 21 22 21 21 22 23
4 3 3 1 7 6 6 6 8 15 18 17 16 15 14 8 18 32 36 35 33 28 24 20 18 22 16 16 14 14 12 11 12 11 10 10 10 10 10 10 12 13 16 19 20 20 21 22 21
5 4 4 6 9 4 6 10 3 16 17 18 15 13 13 13 17 32 38 38 35 30 24 23 24 21 18 16 15 15 13 14 11 10 8 7 6 6 8 9 10 12 13 16 19 18 17 21 21
7 4 6 6 8 6 11 8 9 16 11 12 14 15 13 13 23 30 39 40 37 32 30 28 27 23 20 21 19 17 12 19 14 9 7 6 5 4 6 8 8 11 13 15 17 18 18 21 22
9 6 4 3 4 6 7 13 8 13 17 20 19 15 13 9 12 18 30 37 41 38 34 34 29 27 23 20 18 16 14 19 14 10 7 6 6 5 5 6 7 8 9 13 17 18 17 14 19
3 4 1 4 3 4 4 5 5 10 13 14 13 15 12 15 18 15 26 32 38 40 38 37 32 27 26 21 21 16 12 19 16 12 9 8 6 4 3 5 6 7 9 13 14 15 16 15 13
2 2 3 4 4 3 5 3 4 5 19 14 12 10 13 11 15 17 24 27 36 38 39 36 32 28 24 22 23 19 18 24 19 17 13 11 5 2 2 4 5 6 8 11 12 13 13 11 12
4 3 3 3 2 1 2 2 5 6 6 12 11 13 8 11 17 18 28 35 33 37 40 37 33 30 24 24 22 17 25 25 18 19 16 10 6 3 3 3 4 6 9 10 10 12 13 11 8
2 2 7 5 2 2 4 5 4 2 4 5 6 6 2 10 13 22 22 24 27 34 37 36 34 32 27 24 22 18 22 19 17 22 17 12 8 7 5 4 3 6 8 10 11 12 13 13 10
5 5 3 3 3 5 5 4 3 3 5 9 9 6 6 4 12 12 17 23 27 36 38 36 34 33 31 25 24 18 12 12 15 23 18 14 12 11 7 2 4 7 8 10 10 12 12 13 13
5 7 5 5 3 4 4 3 4 5 7 8 10 9 11 12 8 6 9 17 27 32 37 37 36 33 33 27 22 18 10 15 18 15 10 12 10 9 6 5 7 8 8 9 9 9 11 12 13
3 3 6 5 3 2 3 5 7 2 7 9 11 12 9 12 12 9 9 8 18 24 34 38 37 32 30 26 20 13 14 19 19 19 19 19 14 10 6 6 6 9 10 11 11 11 12 13 15
4 4 3 3 3 4 5 5 6 8 8 7 8 8 8 7 9 7 10 5 15 23 24 24 26 25 23 20 19 25 28 27 24 21 19 17 14 10 9 8 9 11 12 13 11 11 13 16 19
1 1 4 4 4 5 2 5 6 14 12 11 8 7 8 9 6 7 12 11 2 21 23 20 20 19 23 29 31 29 28 25 23 22 18 16 12 11 12 12 12 13 14 12 12 12 16 19 22
6 6 5 5 4 2 3 5 4 10 9 11 9 8 7 8 7 12 15 20 23 26 28 30 30 34 35 34 32 29 25 21 20 19 16 13 14 13 13 13 13 14 13 11 12 14 17 20 20
Wind_Direction
137 27 347 39 57 57 317 4 87 127 61 26 77 94 103 38 34 146 132 145 122 113 102 91 83 84 90 85 92 87 85 81 75 70 63 60 56 54 52 49 47 48 45 40 37 39 36 36 38
145 63 35 73 63 8 346 159 84 86 130 121 86 81 52 61 59 118 120 139 122 112 103 94 88 88 93 95 100 90 84 77 74 70 65 59 55 53 53 51 48 44 41 39 37 35 34 33 30
130 41 82 59 98 208 167 251 130 106 157 112 111 81 101 108 94 106 141 139 118 106 100 92 85 86 96 97 96 87 78 78 73 67 60 56 52 52 51 49 46 43 42 40 38 36 34 33 30
139 53 47 96 247 256 171 190 143 115 86 60 109 73 70 107 111 137 144 130 112 102 93 81 77 82 87 95 99 99 91 78 72 65 57 54 50 50 50 50 49 47 47 46 42 38 36 35 32
183 96 83 1 303 18 72 150 135 120 74 115 125 100 66 66 135 145 139 126 110 102 88 72 67 77 85 90 93 95 89 83 78 70 64 62 60 64 64 63 58 59 56 52 49 45 45 45 38
201 156 101 203 191 150 152 206 149 90 119 121 97 109 103 136 137 145 139 123 111 112 96 72 68 83 88 90 90 89 87 83 80 77 74 73 68 70 64 58 61 61 55 53 46 47 55 58 51
185 141 225 198 174 177 177 183 205 143 151 142 138 94 141 162 147 148 139 130 124 120 102 75 82 91 93 94 92 92 90 80 77 81 82 72 67 66 62 59 56 62 57 53 51 46 44 46 46
136 112 50 196 183 210 191 181 171 158 141 110 141 148 180 169 153 148 142 138 138 130 112 93 96 100 99 95 93 90 88 86 84 82 69 56 50 54 58 58 58 63 56 51 51 49 48 44 49
160 79 241 225 150 189 188 168 28 62 124 62 169 144 146 155 155 146 145 143 141 141 125 108 114 106 109 105 94 97 94 90 91 78 68 70 72 70 70 65 60 60 58 53 54 54 47 49 50
126 123 214 215 182 166 178 116 148 93 96 40 77 113 136 147 148 151 156 152 150 149 138 134 140 141 120 115 99 109 95 98 93 87 81 78 81 74 72 69 63 58 59 58 57 54 53 51 42
25 165 184 286 198 158 157 136 124 122 47 176 144 142 144 148 159 164 164 160 156 149 145 148 136 152 164 138 121 114 105 102 100 90 88 86 83 75 68 63 58 53 49 49 51 51 52 46 41
112 343 148 147 116 120 141 160 130 165 195 147 149 153 154 165 176 168 167 166 159 154 151 157 139 138 139 143 127 120 128 112 110 99 95 90 82 79 70 67 56 48 46 48 47 45 44 40 38
87 149 49 136 154 141 133 179 158 218 141 143 148 158 165 176 177 177 173 166 158 150 142 154 136 133 138 138 133 126 126 123 118 108 95 91 84 83 75 69 56 51 50 49 47 44 37 33 33
128 119 122 121 177 142 147 202 101 88 133 147 157 169 177 187 166 153 154 157 157 150 143 149 141 144 146 140 138 134 130 124 122 115 87 86 84 88 75 69 59 53 51 52 51 44 36 34 35
147 101 96 146 164 122 120 161 152 161 156 158 169 174 181 194 157 157 162 160 159 152 149 153 155 155 156 146 143 132 124 130 123 120 98 91 90 89 80 74 62 52 51 49 48 42 34 33 34
94 76 124 244 157 129 102 244 171 166 159 170 172 177 185 166 160 165 168 165 163 157 157 156 166 161 153 156 159 145 132 119 112 111 110 88 102 88 83 71 64 53 50 48 42 34 28 25 24
8 239 194 158 201 149 138 262 190 179 171 175 178 182 185 161 162 166 171 170 168 166 162 158 163 161 163 163 159 163 155 140 123 117 112 101 107 89 80 74 67 54 49 46 42 35 27 19 16
219 212 224 186 218 166 168 233 189 186 177 178 180 183 188 173 177 173 174 174 172 171 169 160 162 166 169 170 166 160 160 159 143 137 132 126 116 91 83 79 67 51 46 42 38 36 31 19 11
207 246 252 254 198 140 204 210 208 200 181 179 184 187 192 179 186 174 177 176 173 172 170 168 167 172 176 175 179 176 163 158 156 158 160 151 135 119 94 80 67 53 41 38 31 29 25 21 12
241 221 264 295 164 155 182 237 197 198 203 191 185 189 188 171 180 171 172 172 176 176 176 175 175 176 183 186 187 185 181 169 176 176 174 173 163 124 102 82 70 59 42 33 29 24 22 24 21
18 96 319 219 134 266 109 268 190 227 227 207 193 189 189 177 180 172 174 175 175 178 180 179 181 181 185 189 189 193 185 170 165 177 184 181 181 153 101 84 68 55 38 35 29 24 18 10 22
168 278 91 63 97 214 155 268 240 257 224 191 172 188 196 180 185 172 174 178 182 182 184 184 185 184 186 191 198 208 204 177 194 198 192 180 191 155 92 71 66 46 30 26 26 22 16 3 11
192 210 100 137 136 153 261 75 267 10 49 170 174 203 215 191 177 181 183 186 184 181 185 187 187 188 187 191 199 214 201 195 204 196 187 186 183 159 121 88 53 34 19 22 17 9 6 7 355
184 44 37 38 87 25 253 142 304 295 181 104 85 92 105 185 190 192 182 174 178 184 186 188 189 192 193 195 199 196 199 208 203 186 191 189 184 164 154 125 64 29 19 15 2 351 349 347 334
81 56 358 343 2 221 297 90 258 32 71 116 116 79 32 25 173 163 160 167 176 183 186 189 192 196 198 199 202 207 203 218 217 198 195 188 178 162 146 106 36 19 16 2 349 341 336 336 330
181 155 156 206 204 259 330 181 215 160 121 102 82 75 50 39 73 96 149 170 178 181 187 189 195 199 199 199 201 203 195 190 186 184 197 193 175 143 109 65 34 21 7 12 32 39 27 24 34
206 163 186 116 352 62 247 53 19 325 102 96 90 76 56 55 58 64 100 161 184 186 187 190 195 200 200 198 195 168 149 155 144 134 129 126 125 108 82 57 49 50 38 22 11 27 28 25 24
144 162 76 5 136 216 272 182 182 203 157 125 97 91 79 56 54 47 49 71 195 199 193 190 191 192 191 186 154 130 127 129 130 126 120 115 108 94 81 61 43 29 23 22 19 29 24 16 12
64 71 55 119 147 170 234 264 200 183 162 146 124 112 98 87 79 53 38 32 167 180 174 162 160 152 139 134 126 122 118 117 115 109 105 103 91 72 54 42 34 32 34 32 26 28 22 14 7
162 178 146 134 232 230 150 273 27 166 135 127 121 109 94 85 68 73 65 65 82 104 121 124 124 122 124 123 119 115 112 105 97 89 83 68 61 48 39 32 31 33 26 24 26 27 18 13 9
Height
809 807 804 803 837 849 854 844 825 829 834 833 829 837 849 849 851 871 863 863 862 863 864 863 863 862 862 863 863 863 862 861 860 860 859 858 857 856 854 854 853 852 851 850 849 847 846 845 844
809 809 806 820 853 869 856 836 838 830 832 829 830 838 845 858 852 860 865 866 864 863 864 865 864 864 864 864 864 864 864 863 862 861 860 859 858 857 856 855 854 853 852 851 850 848 847 845 844
811 811 821 844 857 868 858 838 831 829 826 826 836 838 848 857 856 860 863 865 865 865 865 866 866 866 866 866 866 866 865 864 863 862 861 860 859 858 857 856 855 854 853 852 850 849 848 846 845
813 815 830 852 857 844 837 835 828 828 827 827 835 848 850 853 856 860 863 865 865 866 867 868 867 867 867 866 866 867 866 865 864 863 862 861 860 859 858 857 856 855 853 852 851 850 848 847 846
813 818 852 853 848 837 832 828 825 827 830 834 834 854 857 856 857 862 865 866 864 867 868 869 868 868 867 868 868 868 868 867 866 866 864 863 862 861 860 860 859 857 856 854 853 851 849 848 847
820 820 845 854 847 836 831 827 825 829 835 840 844 848 856 858 858 862 864 865 866 866 868 869 868 868 868 869 870 871 870 869 869 868 867 866 866 864 864 862 861 860 859 857 855 854 851 849 847
820 825 836 840 843 840 831 824 828 830 835 840 837 854 856 856 859 862 864 866 867 867 868 869 869 870 870 871 872 872 872 871 871 870 870 869 868 868 867 865 863 862 860 859 858 857 855 853 851
809 817 836 838 845 841 824 824 820 824 831 832 836 854 860 854 858 861 864 865 865 868 869 869 870 870 871 872 874 874 874 873 872 872 872 871 871 870 870 868 866 864 863 861 859 859 857 856 854
797 833 848 830 834 827 820 826 820 822 830 831 833 837 842 853 857 860 863 866 866 866 868 871 871 871 871 872 873 875 876 875 875 874 874 873 872 872 871 870 869 867 866 864 862 861 860 859 857
804 831 832 812 811 820 818 822 824 831 837 841 840 841 846 853 858 859 861 863 865 865 865 868 872 873 874 874 874 875 876 876 876 876 876 875 875 874 873 872 871 869 867 866 864 863 861 861 860
799 819 810 805 805 806 815 824 821 835 841 836 841 844 848 851 855 858 860 860 862 867 868 868 868 869 873 875 875 876 877 878 878 878 877 877 876 876 875 874 873 872 871 869 867 865 864 863 862
809 805 803 805 804 810 819 819 823 824 826 827 833 838 844 849 851 853 857 860 862 866 869 871 871 870 871 874 877 877 878 878 879 879 878 877 877 877 876 876 875 874 872 870 869 867 866 865 863
808 805 803 803 806 810 812 817 821 823 822 829 835 839 842 845 848 851 854 858 861 864 868 871 873 874 875 875 876 878 879 880 880 881 880 879 879 879 878 877 876 875 874 872 871 869 868 866 865
798 805 806 808 810 811 818 819 818 828 824 831 834 838 839 841 845 850 856 861 862 863 867 871 874 876 877 877 878 879 880 881 882 883 883 882 882 881 880 879 878 877 876 875 873 872 871 869 867
803 816 810 808 812 816 816 827 831 824 825 829 833 836 839 841 846 850 855 859 861 865 868 871 874 878 879 880 881 881 882 882 883 884 884 884 884 883 882 881 880 880 878 877 875 874 872 871 869
807 818 834 815 812 812 819 843 824 822 825 830 831 834 837 840 844 849 852 854 859 862 867 872 875 878 879 881 882 883 884 884 885 885 885 886 886 885 884 882 882 882 880 878 877 876 874 873 871
823 839 833 823 811 813 820 832 821 819 820 827 829 831 833 838 842 844 848 851 855 858 863 867 873 876 879 882 884 884 885 886 886 887 887 887 887 886 885 884 884 883 882 881 880 878 876 874 872
836 835 821 827 815 814 824 824 820 819 818 821 826 829 832 835 837 840 843 847 851 856 860 864 869 874 878 881 883 884 885 886 888 888 888 888 888 888 886 886 885 884 883 883 882 881 879 876 873
812 817 821 811 804 812 819 820 819 816 819 823 824 826 829 833 833 837 840 844 850 854 858 861 866 872 876 878 880 883 885 887 888 888 888 889 888 888 887 886 886 885 885 885 883 882 880 877 874
806 814 817 804 799 806 816 817 817 814 811 809 813 820 824 830 833 836 839 842 845 849 854 859 862 867 873 877 880 883 884 887 887 887 888 888 889 888 888 887 886 886 887 886 884 883 881 880 878
814 815 811 812 806 804 811 819 816 813 805 807 810 812 818 823 827 832 837 839 843 846 849 854 858 863 868 873 877 881 884 886 887 887 887 888 888 889 888 887 887 887 887 886 885 885 883 881 880
818 804 803 811 823 837 809 843 814 812 800 806 812 816 815 819 822 828 834 837 838 842 848 853 857 861 865 870 874 878 880 882 883 884 886 887 888 889 889 888 888 889 888 886 886 886 885 883 881
809 798 801 807 820 820 817 835 819 810 813 808 812 810 813 813 815 822 825 827 835 841 845 851 856 860 864 867 872 875 877 879 881 884 885 886 888 889 889 889 889 888 887 886 886 886 885 883 881
793 803 812 817 828 846 822 831 830 821 813 813 813 814 811 811 814 816 823 831 835 840 845 850 855 859 862 865 869 873 876 877 879 882 884 886 888 889 890 889 889 888 887 886 886 885 883 882 881
803 826 862 853 863 854 815 830 826 814 812 812 815 816 813 808 808 815 821 827 832 837 842 848 852 856 859 863 867 870 873 875 877 879 882 885 887 889 890 890 890 888 887 886 885 884 883 881 880
813 823 858 855 861 845 813 834 833 814 813 813 814 816 814 813 814 818 822 826 830 835 839 845 849 852 856 861 865 870 871 874 877 881 884 886 888 889 890 890 890 889 886 885 883 882 881 879 878
810 825 815 837 841 847 832 827 824 821 818 818 820 823 825 822 823 824 825 827 831 835 837 840 846 851 856 862 867 869 870 872 878 881 884 886 889 889 890 889 888 886 885 884 883 882 881 880 878
804 804 838 858 862 855 840 833 840 831 824 822 824 830 831 829 828 827 827 828 829 834 839 845 850 854 859 863 867 870 873 876 879 882 886 886 887 889 889 888 887 886 885 884 884 883 881 879 878
815 820 826 834 848 863 859 841 812 815 816 822 825 828 829 833 835 832 830 828 826 831 837 844 850 855 860 865 869 872 876 879 882 883 885 885 887 887 888 888 887 886 886 885 884 882 881 879 877
803 812 820 856 840 848 851 843 814 809 817 821 827 829 831 832 835 835 836 833 832 834 839 844 850 856 862 868 871 875 878 881 884 885 886 886 886 887 887 887 887 887 886 885 884 883 881 878 875